When you browse on this site, cookies collect data to enhance your experience and personalize the content and advertising you see.
Visit our Privacy Policy to learn more. By continuing to use the site, you agree to this use of cookies and data.
  • In Spain
  • List of Countries
  • For 7 days
  • Water Temperature
  • Weather Map
  • Weather Widgets
  • user-avatar
    Login

    Hourly Weather Tshlykovo

    Today, 21 September, Saturday

    Time Temperature Precipitation Wind Pressure Humidity
    00:00 +3°C° 0 mm 2 mps 746 mmHg 92%
    01:00 +3°C° 0 mm 2 mps 746 mmHg 93%
    02:00 +3°C° 0 mm 2 mps 746 mmHg 95%
    03:00 +2°C° 0 mm 2 mps 746 mmHg 95%
    04:00 +2°C° 0 mm 2 mps 746 mmHg 95%
    05:00 +2°C° 0 mm 2 mps 746 mmHg 96%
    06:00 +2°C° 0 mm 3 mps 747 mmHg 92%
    07:00 +3°C° 0 mm 3 mps 747 mmHg 88%
    08:00 +4°C° 0 mm 3 mps 747 mmHg 83%
    09:00 +5°C° 0 mm 3 mps 747 mmHg 76%
    10:00 +8°C° 0 mm 3 mps 747 mmHg 69%
    11:00 +9°C° 0 mm 3 mps 747 mmHg 62%
    12:00 +8°C° 0 mm 4 mps 746 mmHg 59%
    13:00 +8°C° 0 mm 4 mps 746 mmHg 56%
    14:00 +8°C° 0 mm 4 mps 746 mmHg 56%
    15:00 +8°C° 0 mm 3 mps 746 mmHg 59%
    16:00 +8°C° 0 mm 3 mps 745 mmHg 62%
    17:00 +7°C° 0 mm 2 mps 745 mmHg 66%
    18:00 +7°C° 0 mm 3 mps 744 mmHg 67%
    19:00 +5°C° 0 mm 4 mps 744 mmHg 69%
    20:00 +5°C° 0 mm 4 mps 744 mmHg 70%
    21:00 +5°C° 0.4 mm 5 mps 743 mmHg 78%
    22:00 +4°C° 0.4 mm 6 mps 742 mmHg 85%
    23:00 +3°C° 0.4 mm 7 mps 741 mmHg 92%

    Tomorrow, 22 September, Sunday

    Time Temperature Precipitation Wind Pressure Humidity
    00:00 +4°C° 0.5 mm 6 mps 740 mmHg 93%
    01:00 +4°C° 0.5 mm 6 mps 739 mmHg 94%
    02:00 +5°C° 0.5 mm 6 mps 738 mmHg 94%
    03:00 +5°C° 0.7 mm 6 mps 737 mmHg 95%
    04:00 +7°C° 0.7 mm 5 mps 736 mmHg 95%
    05:00 +8°C° 0.7 mm 5 mps 736 mmHg 96%
    06:00 +8°C° 0.3 mm 6 mps 736 mmHg 92%
    07:00 +8°C° 0.3 mm 7 mps 736 mmHg 89%
    08:00 +7°C° 0.3 mm 8 mps 736 mmHg 85%
    09:00 +7°C° 0 mm 8 mps 737 mmHg 79%
    10:00 +8°C° 0 mm 9 mps 737 mmHg 73%
    11:00 +8°C° 0 mm 9 mps 737 mmHg 66%
    12:00 +8°C° 0.2 mm 9 mps 738 mmHg 66%
    13:00 +7°C° 0.2 mm 9 mps 738 mmHg 67%
    14:00 +7°C° 0.2 mm 8 mps 738 mmHg 67%
    15:00 +6°C° 0.1 mm 7 mps 739 mmHg 68%
    16:00 +6°C° 0.1 mm 7 mps 739 mmHg 69%
    17:00 +5°C° 0.1 mm 6 mps 739 mmHg 70%
    18:00 +5°C° 0 mm 5 mps 740 mmHg 72%
    19:00 +3°C° 0 mm 5 mps 741 mmHg 75%
    20:00 +2°C° 0 mm 5 mps 742 mmHg 77%
    21:00 +1°C° 0 mm 5 mps 742 mmHg 80%
    22:00 +1°C° 0 mm 4 mps 743 mmHg 82%
    23:00 0°C° 0 mm 4 mps 743 mmHg 84%

    Day after tomorrow, 23 September, Monday

    Time Temperature Precipitation Wind Pressure Humidity
    00:00 0°C° 0 mm 4 mps 744 mmHg 86%
    01:00 0°C° 0 mm 4 mps 744 mmHg 88%
    02:00 -1°C° 0 mm 4 mps 745 mmHg 90%
    03:00 -1°C° 0 mm 4 mps 745 mmHg 92%
    04:00 -1°C° 0 mm 4 mps 746 mmHg 93%
    05:00 -2°C° 0 mm 4 mps 746 mmHg 95%
    06:00 -1°C° 0 mm 4 mps 747 mmHg 91%
    07:00 0°C° 0 mm 4 mps 747 mmHg 86%
    08:00 +1°C° 0 mm 5 mps 747 mmHg 82%
    09:00 +1°C° 0 mm 5 mps 748 mmHg 78%
    10:00 +3°C° 0 mm 4 mps 748 mmHg 74%
    11:00 +4°C° 0 mm 4 mps 748 mmHg 69%
    12:00 +5°C° 0 mm 4 mps 748 mmHg 65%
    13:00 +6°C° 0 mm 5 mps 748 mmHg 61%
    14:00 +7°C° 0 mm 5 mps 748 mmHg 57%
    15:00 +7°C° 0 mm 4 mps 748 mmHg 60%
    16:00 +7°C° 0 mm 3 mps 748 mmHg 64%
    17:00 +5°C° 0 mm 3 mps 748 mmHg 67%
    18:00 +4°C° 0 mm 3 mps 748 mmHg 70%
    19:00 +3°C° 0 mm 3 mps 749 mmHg 74%
    20:00 +2°C° 0 mm 3 mps 749 mmHg 77%
    21:00 +1°C° 0 mm 3 mps 749 mmHg 79%
    22:00 +1°C° 0 mm 3 mps 749 mmHg 82%
    23:00 0°C° 0 mm 3 mps 749 mmHg 84%

    24 September, Tuesday

    Time Temperature Precipitation Wind Pressure Humidity
    00:00 0°C° 0 mm 3 mps 749 mmHg 86%
    01:00 0°C° 0 mm 3 mps 749 mmHg 87%
    02:00 +1°C° 0 mm 2 mps 749 mmHg 88%
    03:00 +1°C° 0 mm 2 mps 749 mmHg 89%
    04:00 +1°C° 0 mm 2 mps 749 mmHg 90%
    05:00 +1°C° 0 mm 2 mps 749 mmHg 90%
    06:00 +2°C° 0 mm 2 mps 749 mmHg 86%
    07:00 +3°C° 0 mm 2 mps 749 mmHg 82%
    08:00 +3°C° 0 mm 3 mps 749 mmHg 78%
    09:00 +4°C° 0 mm 3 mps 749 mmHg 74%
    10:00 +5°C° 0 mm 3 mps 749 mmHg 70%
    11:00 +7°C° 0 mm 3 mps 749 mmHg 65%
    12:00 +8°C° 0.1 mm 3 mps 749 mmHg 64%
    13:00 +7°C° 0.1 mm 4 mps 749 mmHg 63%
    14:00 +7°C° 0.1 mm 4 mps 749 mmHg 63%
    15:00 +7°C° 0 mm 3 mps 749 mmHg 66%
    16:00 +6°C° 0 mm 2 mps 749 mmHg 70%
    17:00 +6°C° 0 mm 2 mps 749 mmHg 74%
    18:00 +6°C° 0 mm 1 mps 749 mmHg 76%
    19:00 +4°C° 0 mm 1 mps 749 mmHg 77%
    20:00 +3°C° 0 mm 1 mps 749 mmHg 79%
    21:00 +3°C° 0 mm 1 mps 749 mmHg 78%
    22:00 +3°C° 0 mm 1 mps 749 mmHg 76%
    23:00 +3°C° 0 mm 1 mps 749 mmHg 75%

    25 September, Wednesday

    Time Temperature Precipitation Wind Pressure Humidity
    00:00 +3°C° 0 mm 1 mps 749 mmHg 75%
    01:00 +3°C° 0 mm 1 mps 749 mmHg 74%
    02:00 +3°C° 0 mm 1 mps 749 mmHg 73%
    03:00 +3°C° 0 mm 1 mps 749 mmHg 75%
    04:00 +3°C° 0 mm 1 mps 749 mmHg 77%
    05:00 +2°C° 0 mm 1 mps 749 mmHg 79%
    06:00 +4°C° 0 mm 1 mps 749 mmHg 76%
    07:00 +5°C° 0 mm 1 mps 749 mmHg 72%
    08:00 +6°C° 0 mm 1 mps 749 mmHg 68%
    09:00 +7°C° 0 mm 2 mps 749 mmHg 63%
    10:00 +8°C° 0 mm 2 mps 750 mmHg 58%
    11:00 +9°C° 0 mm 2 mps 750 mmHg 53%
    12:00 +9°C° 0 mm 2 mps 749 mmHg 52%
    13:00 +10°C° 0 mm 2 mps 749 mmHg 51%
    14:00 +10°C° 0 mm 2 mps 749 mmHg 51%
    15:00 +9°C° 0 mm 2 mps 749 mmHg 55%
    16:00 +8°C° 0 mm 2 mps 748 mmHg 60%
    17:00 +7°C° 0 mm 2 mps 748 mmHg 65%
    18:00 +7°C° 0 mm 2 mps 748 mmHg 66%
    19:00 +6°C° 0 mm 2 mps 748 mmHg 68%
    20:00 +4°C° 0 mm 3 mps 748 mmHg 69%
    21:00 +5°C° 0 mm 3 mps 748 mmHg 68%
    22:00 +5°C° 0 mm 4 mps 748 mmHg 66%
    23:00 +5°C° 0 mm 4 mps 748 mmHg 64%

    26 September, Thursday

    Time Temperature Precipitation Wind Pressure Humidity
    00:00 +5°C° 0 mm 4 mps 747 mmHg 63%
    01:00 +5°C° 0 mm 5 mps 747 mmHg 61%
    02:00 +5°C° 0 mm 5 mps 747 mmHg 59%
    03:00 +5°C° 0 mm 5 mps 747 mmHg 58%
    04:00 +5°C° 0 mm 5 mps 746 mmHg 57%
    05:00 +4°C° 0 mm 6 mps 746 mmHg 55%
    06:00 +5°C° 0 mm 6 mps 746 mmHg 56%
    07:00 +7°C° 0 mm 6 mps 745 mmHg 56%
    08:00 +8°C° 0 mm 7 mps 745 mmHg 56%
    09:00 +9°C° 0 mm 6 mps 745 mmHg 58%
    10:00 +10°C° 0 mm 6 mps 745 mmHg 59%
    11:00 +11°C° 0 mm 6 mps 745 mmHg 61%
    12:00 +12°C° 0.1 mm 5 mps 744 mmHg 65%
    13:00 +12°C° 0.1 mm 4 mps 744 mmHg 69%
    14:00 +12°C° 0.1 mm 3 mps 744 mmHg 73%
    15:00 +12°C° 0 mm 3 mps 743 mmHg 74%
    16:00 +12°C° 0 mm 3 mps 743 mmHg 75%
    17:00 +12°C° 0 mm 3 mps 743 mmHg 77%
    18:00 +12°C° 0.1 mm 3 mps 743 mmHg 79%
    19:00 +12°C° 0.1 mm 3 mps 742 mmHg 82%
    20:00 +11°C° 0.1 mm 3 mps 742 mmHg 85%
    21:00 +11°C° 0.1 mm 3 mps 742 mmHg 86%
    22:00 +11°C° 0.1 mm 3 mps 742 mmHg 87%
    23:00 +11°C° 0.1 mm 3 mps 742 mmHg 89%
    Show more